{"data":{"norad_id":50482,"epoch":"2026-09-19T22:31:41.589120Z","epoch_age_seconds":74286,"freshness":"FRESH","line1":"1 50482U 21132P   26262.93867580 -.00001128  00000+0 -28944-2 0  9994","line2":"2 50482  87.9160 316.6080 0002415  89.3225 270.8184 13.18691782234125","mean_motion":13.18691782,"eccentricity":0.0002415,"inclination_deg":87.916,"raan_deg":316.608,"arg_perigee_deg":89.3225,"mean_anomaly_deg":270.8184,"bstar":-0.0028944,"rev_number":23412,"period_min":109.19913353946,"perigee_km":1187.8933674795,"apogee_km":1191.548642896,"semimajor_km":7567.8580051878,"source":"CELESTRAK","updated_at":"2026-09-20T09:00:44.702012Z"}}